{"data":{"norad_id":33278,"epoch":"2026-05-25T03:16:33.003840Z","epoch_age_seconds":63423,"freshness":"FRESH","line1":"1 33278U 08039A   26145.13649310 -.00000143  00000+0  00000+0 0  9995","line2":"2 33278   4.2739  31.5396 0002850  32.2105 130.1141  1.00269890 46315","mean_motion":1.0026989,"eccentricity":0.000285,"inclination_deg":4.2739,"raan_deg":31.5396,"arg_perigee_deg":32.2105,"mean_anomaly_deg":130.1141,"bstar":0,"rev_number":4631,"period_min":1436.1240448154,"perigee_km":35775.109106834,"apogee_km":35799.143306862,"semimajor_km":42165.263206848,"source":"CELESTRAK","updated_at":"2026-05-25T13:38:13.860669Z"}}